sat.trackr.live / text

‹ back to catalog

STARLINK-4417

NORAD 53200 · 2022-084M

PAYLOAD ACTIVE UNKNOWN

§ Identity

Operator
Country
US
Launch date
2022-07-22
Launch site
AFWTR
Launch vehicle
Mass (kg)
RCS (m²)

Purposes: comms

External: N2YO · Heavens-Above · Gunter

§ Orbital elements

Epoch: 2026-09-19T22:23:00.146112Z

Period
93.91 min
Inclination
97.2838°
Eccentricity
0.0001632
Mean motion
15.33435998 rev/d
Perigee alt
464.5 km
Apogee alt
466.7 km
Semi-major
6,843.7 km
B*
3.1879e-5
RAAN
318.7058°
Arg perigee
91.8506°
Mean anomaly
268.2923°
Rev number
22,932

§ Raw data

STARLINK-44171 53200U 22084M   26262.93264058  .00000954  00000+0  31879-4 0  99902 53200  97.2838 318.7058 0001632  91.8506 268.2923 15.33435998229322

JSON: /api/v1/satellites/53200 · /tle

For live sub-satellite position, see the globe view (requires WebGL).

§ Visibility from observer

Set your observer location to see the next 7 days of passes ≥ 10°. The values pass through the URL so the page stays shareable.

No JS? Fill the form by hand. The geolocation button needs JavaScript.